• In Belarus
  • List of Countries
  • For 7 days
  • Water Temperature
  • Satellite Maps
  • Weather Map
  • Weather Widgets
  • user-avatar
    Login

    Hourly Weather Gorodenka

    Today, 17 October, Tuesday

    Time Temperature Precipitation Wind Pressure Humidity
    00:00 +14°C° 0 mm 2 mps 744 mmHg 75%
    01:00 +14°C° 0 mm 2 mps 745 mmHg 76%
    02:00 +13°C° 0 mm 3 mps 744 mmHg 74%
    03:00 +13°C° 0 mm 3 mps 744 mmHg 75%
    04:00 +12°C° 0 mm 3 mps 744 mmHg 76%
    05:00 +13°C° 0 mm 2 mps 744 mmHg 77%
    06:00 +14°C° 0 mm 2 mps 745 mmHg 76%
    07:00 +14°C° 0 mm 2 mps 745 mmHg 76%
    08:00 +14°C° 0 mm 3 mps 745 mmHg 73%
    09:00 +17°C° 0 mm 3 mps 745 mmHg 66%
    10:00 +19°C° 0 mm 3 mps 745 mmHg 59%
    11:00 +21°C° 0 mm 3 mps 745 mmHg 53%
    12:00 +22°C° 0 mm 3 mps 745 mmHg 50%
    13:00 +22°C° 0 mm 3 mps 745 mmHg 48%
    14:00 +24°C° 0 mm 3 mps 745 mmHg 46%
    15:00 +23°C° 0 mm 2 mps 744 mmHg 51%
    16:00 +20°C° 0 mm 2 mps 744 mmHg 57%
    17:00 +20°C° 0 mm 1 mps 743 mmHg 62%
    18:00 +19°C° 0 mm 1 mps 743 mmHg 66%
    19:00 +18°C° 0 mm 1 mps 743 mmHg 70%
    20:00 +16°C° 0 mm 1 mps 743 mmHg 73%
    21:00 +15°C° 0 mm 1 mps 743 mmHg 74%
    22:00 +15°C° 0 mm 1 mps 743 mmHg 74%
    23:00 +14°C° 0 mm 1 mps 743 mmHg 75%

    Tomorrow, 18 October, Wednesday

    Time Temperature Precipitation Wind Pressure Humidity
    00:00 +14°C° 0 mm 1 mps 743 mmHg 75%
    01:00 +14°C° 0 mm 1 mps 743 mmHg 74%
    02:00 +13°C° 0 mm 1 mps 743 mmHg 74%
    03:00 +13°C° 0 mm 1 mps 742 mmHg 74%
    04:00 +13°C° 0 mm 1 mps 742 mmHg 73%
    05:00 +12°C° 0 mm 1 mps 742 mmHg 73%
    06:00 +13°C° 0 mm 1 mps 741 mmHg 71%
    07:00 +13°C° 0 mm 1 mps 741 mmHg 69%
    08:00 +14°C° 0 mm 1 mps 741 mmHg 67%
    09:00 +16°C° 0 mm 1 mps 741 mmHg 59%
    10:00 +20°C° 0 mm 1 mps 741 mmHg 51%
    11:00 +22°C° 0 mm 1 mps 741 mmHg 43%
    12:00 +23°C° 0 mm 1 mps 740 mmHg 41%
    13:00 +24°C° 0 mm 1 mps 740 mmHg 39%
    14:00 +25°C° 0 mm 1 mps 740 mmHg 36%
    15:00 +24°C° 0 mm 1 mps 739 mmHg 41%
    16:00 +22°C° 0 mm 1 mps 739 mmHg 46%
    17:00 +21°C° 0 mm 1 mps 739 mmHg 51%
    18:00 +20°C° 0 mm 1 mps 739 mmHg 53%
    19:00 +19°C° 0 mm 1 mps 739 mmHg 55%
    20:00 +18°C° 0 mm 1 mps 739 mmHg 56%
    21:00 +16°C° 0 mm 1 mps 739 mmHg 57%
    22:00 +16°C° 0 mm 1 mps 739 mmHg 57%
    23:00 +15°C° 0 mm 1 mps 739 mmHg 58%

    Day after tomorrow, 19 October, Thursday

    Time Temperature Precipitation Wind Pressure Humidity
    00:00 +15°C° 0 mm 1 mps 738 mmHg 58%
    01:00 +15°C° 0 mm 1 mps 738 mmHg 59%
    02:00 +14°C° 0 mm 1 mps 738 mmHg 59%
    03:00 +14°C° 0 mm 1 mps 738 mmHg 60%
    04:00 +14°C° 0 mm 1 mps 738 mmHg 60%
    05:00 +14°C° 0 mm 1 mps 737 mmHg 60%
    06:00 +14°C° 0 mm 1 mps 738 mmHg 60%
    07:00 +14°C° 0 mm 1 mps 738 mmHg 59%
    08:00 +15°C° 0 mm 1 mps 738 mmHg 58%
    09:00 +16°C° 0 mm 0 mps 738 mmHg 53%
    10:00 +18°C° 0 mm 0 mps 738 mmHg 48%
    11:00 +20°C° 0 mm 0 mps 738 mmHg 42%
    12:00 +23°C° 0 mm 1 mps 738 mmHg 40%
    13:00 +24°C° 0 mm 1 mps 737 mmHg 39%
    14:00 +24°C° 0 mm 1 mps 737 mmHg 37%
    15:00 +23°C° 0 mm 1 mps 737 mmHg 42%
    16:00 +22°C° 0 mm 1 mps 737 mmHg 47%
    17:00 +20°C° 0 mm 1 mps 737 mmHg 52%
    18:00 +19°C° 0 mm 1 mps 737 mmHg 54%
    19:00 +18°C° 0 mm 1 mps 737 mmHg 57%
    20:00 +16°C° 0 mm 1 mps 737 mmHg 59%
    21:00 +15°C° 0 mm 1 mps 738 mmHg 61%
    22:00 +15°C° 0 mm 1 mps 738 mmHg 63%
    23:00 +14°C° 0 mm 1 mps 738 mmHg 64%

    20 October, Friday

    Time Temperature Precipitation Wind Pressure Humidity
    00:00 +14°C° 0 mm 1 mps 738 mmHg 66%
    01:00 +13°C° 0 mm 1 mps 738 mmHg 68%
    02:00 +13°C° 0 mm 1 mps 738 mmHg 70%
    03:00 +12°C° 0 mm 1 mps 738 mmHg 71%
    04:00 +12°C° 0 mm 1 mps 738 mmHg 73%
    05:00 +12°C° 0 mm 1 mps 738 mmHg 74%
    06:00 +12°C° 0 mm 1 mps 738 mmHg 74%
    07:00 +12°C° 0 mm 1 mps 739 mmHg 74%
    08:00 +12°C° 0 mm 1 mps 739 mmHg 74%
    09:00 +14°C° 0 mm 2 mps 739 mmHg 68%
    10:00 +16°C° 0 mm 2 mps 739 mmHg 62%
    11:00 +18°C° 0 mm 2 mps 740 mmHg 56%
    12:00 +19°C° 0 mm 2 mps 739 mmHg 55%
    13:00 +19°C° 0 mm 2 mps 739 mmHg 53%
    14:00 +20°C° 0 mm 2 mps 739 mmHg 52%
    15:00 +19°C° 0 mm 2 mps 739 mmHg 57%
    16:00 +18°C° 0 mm 2 mps 739 mmHg 63%
    17:00 +18°C° 0 mm 1 mps 739 mmHg 68%
    18:00 +16°C° 0 mm 1 mps 740 mmHg 73%
    19:00 +15°C° 0 mm 1 mps 740 mmHg 77%
    20:00 +14°C° 0 mm 1 mps 740 mmHg 81%
    21:00 +13°C° 0 mm 1 mps 740 mmHg 83%
    22:00 +13°C° 0 mm 1 mps 741 mmHg 84%
    23:00 +13°C° 0 mm 1 mps 741 mmHg 86%

    21 October, Saturday

    Time Temperature Precipitation Wind Pressure Humidity
    00:00 +12°C° 0 mm 1 mps 741 mmHg 87%
    01:00 +12°C° 0 mm 1 mps 741 mmHg 87%
    02:00 +12°C° 0 mm 1 mps 741 mmHg 88%
    03:00 +11°C° 0 mm 1 mps 740 mmHg 88%
    04:00 +11°C° 0 mm 1 mps 740 mmHg 88%
    05:00 +11°C° 0 mm 1 mps 740 mmHg 88%
    06:00 +11°C° 0 mm 1 mps 740 mmHg 86%
    07:00 +11°C° 0 mm 1 mps 740 mmHg 84%
    08:00 +12°C° 0 mm 1 mps 740 mmHg 82%
    09:00 +14°C° 0 mm 1 mps 740 mmHg 73%
    10:00 +16°C° 0 mm 1 mps 740 mmHg 64%
    11:00 +19°C° 0 mm 1 mps 740 mmHg 56%
    12:00 +20°C° 0 mm 1 mps 739 mmHg 51%
    13:00 +21°C° 0 mm 1 mps 739 mmHg 47%
    14:00 +21°C° 0 mm 1 mps 738 mmHg 42%
    15:00 +20°C° 0 mm 1 mps 738 mmHg 46%
    16:00 +19°C° 0 mm 1 mps 738 mmHg 50%
    17:00 +18°C° 0 mm 1 mps 737 mmHg 54%
    18:00 +16°C° 0 mm 1 mps 737 mmHg 55%
    19:00 +15°C° 0 mm 1 mps 737 mmHg 57%
    20:00 +15°C° 0 mm 2 mps 738 mmHg 59%
    21:00 +14°C° 0 mm 2 mps 738 mmHg 60%
    22:00 +14°C° 0 mm 2 mps 738 mmHg 62%
    23:00 +14°C° 0 mm 2 mps 738 mmHg 64%

    22 October, Sunday

    Time Temperature Precipitation Wind Pressure Humidity
    00:00 +13°C° 0 mm 2 mps 738 mmHg 66%
    01:00 +13°C° 0 mm 2 mps 738 mmHg 68%
    02:00 +12°C° 0 mm 2 mps 737 mmHg 70%
    03:00 +12°C° 0 mm 2 mps 738 mmHg 72%
    04:00 +12°C° 0 mm 2 mps 738 mmHg 74%
    05:00 +12°C° 0 mm 2 mps 738 mmHg 75%
    06:00 +12°C° 0.1 mm 2 mps 738 mmHg 77%
    07:00 +12°C° 0.1 mm 2 mps 738 mmHg 78%
    08:00 +13°C° 0.1 mm 2 mps 738 mmHg 80%
    09:00 +13°C° 0.1 mm 2 mps 738 mmHg 78%
    10:00 +14°C° 0.1 mm 2 mps 738 mmHg 75%
    11:00 +15°C° 0.1 mm 2 mps 738 mmHg 73%
    12:00 +16°C° 0 mm 2 mps 738 mmHg 71%
    13:00 +16°C° 0 mm 2 mps 738 mmHg 68%
    14:00 +17°C° 0 mm 2 mps 738 mmHg 66%
    15:00 +16°C° 0 mm 2 mps 738 mmHg 69%
    16:00 +15°C° 0 mm 2 mps 738 mmHg 73%
    17:00 +14°C° 0 mm 2 mps 738 mmHg 76%
    18:00 +12°C° 0 mm 3 mps 738 mmHg 77%
    19:00 +12°C° 0 mm 3 mps 738 mmHg 77%
    20:00 +11°C° 0 mm 3 mps 738 mmHg 78%
    21:00 +11°C° 0 mm 4 mps 738 mmHg 78%
    22:00 +11°C° 0 mm 4 mps 738 mmHg 77%
    23:00 +9°C° 0 mm 5 mps 738 mmHg 77%
    Show more